Date,TemperatureHighF,TemperatureAvgF,TemperatureLowF,DewpointHighF,DewpointAvgF,DewpointLowF,HumidityHigh,HumidityAvg,HumidityLow,PressureMaxIn,PressureMinIn,WindSpeedMaxMPH,WindSpeedAvgMPH,GustSpeedMaxMPH,PrecipitationSumIn
2013-3-2,67.5,60.2,47.8,55.9,52.6,42.3,89,77,61,30.26,30.13,9,2,11,0.00
2013-3-3,67.6,53.5,40.6,56.3,46.8,34.2,88,78,66,30.26,30.15,6,2,12,0.00
2013-3-4,67.3,51.9,39.2,56.8,44.5,32.4,90,76,67,30.28,30.17,11,2,11,0.00
2013-3-5,66.4,52.4,38.8,58.1,45.8,26.8,97,79,59,30.27,30.15,10,2,10,0.01
2013-3-6,65.8,54.0,43.3,58.5,49.4,35.6,97,85,67,30.24,30.14,8,2,9,0.08
2013-3-7,63.9,54.4,45.1,60.1,51.1,41.9,98,89,75,30.19,30.06,8,2,9,0.02
2013-3-8,65.8,56.4,45.0,60.3,50.6,39.7,93,81,67,30.14,29.98,15,3,15,0.02
2013-3-9,68.7,61.3,56.3,56.8,52.1,47.7,98,73,56,30.05,29.91,21,4,24,0.15
2013-3-10,69.3,60.0,54.9,58.1,54.4,48.7,98,83,54,30.06,29.92,24,4,24,0.05
2013-3-11,62.6,57.6,51.6,61.0,55.4,47.1,98,93,62,30.13,30.00,13,1,13,0.05
2013-3-12,64.4,58.7,50.5,60.8,55.0,43.9,96,87,69,30.14,30.04,10,1,10,0.00
2013-3-13,66.6,56.2,47.1,60.1,51.4,43.5,95,84,75,30.16,30.05,12,2,12,0.03
2013-3-14,67.6,58.4,48.0,60.4,55.4,46.0,99,90,75,30.15,30.03,11,2,11,0.00
2013-3-15,67.1,59.9,55.0,61.2,54.5,28.9,99,83,32,30.06,29.94,15,3,16,0.01
2013-3-16,61.3,55.6,50.2,56.7,53.1,48.7,99,91,80,30.07,29.94,9,1,9,0.01
2013-3-17,61.5,53.0,45.3,54.7,49.3,42.6,96,88,70,30.12,30.01,10,1,10,0.01
2013-3-18,63.9,55.0,43.7,57.4,49.1,41.7,97,81,60,30.11,30.00,13,2,13,0.00
2013-3-19,68.4,55.8,44.2,58.5,50.2,42.3,97,82,57,30.12,30.01,16,2,16,0.00
2013-3-20,67.3,58.0,49.5,59.9,53.9,46.9,94,87,69,30.16,30.05,8,1,8,0.00
2013-3-21,69.8,59.4,52.9,62.4,54.3,49.1,90,84,71,30.15,30.07,9,2,9,0.00
2013-3-27,58.1,55.3,53.4,57.7,54.3,51.8,99,96,94,30.09,30.07,6,1,8,0.74
2013-3-28,70.0,59.0,49.5,61.7,55.4,48.0,97,88,71,30.10,29.98,11,2,12,0.74
2013-3-29,68.4,56.7,49.3,61.5,54.3,45.5,99,92,77,30.12,30.01,7,1,9,1.82
2013-3-30,65.1,56.0,50.2,61.9,55.0,49.1,99,97,78,30.13,30.03,8,1,9,0.19
2013-3-31,62.8,53.5,43.3,56.1,50.5,40.1,99,90,74,30.11,30.01,10,2,13,0.22
2013-4-1,62.1,50.9,40.5,54.3,46.7,36.1,96,86,71,30.11,30.01,8,2,10,0.00
2013-4-2,59.9,51.7,43.5,55.0,47.8,39.0,96,87,76,30.16,30.06,11,2,12,0.00
2013-4-3,62.8,53.7,43.9,56.3,49.0,38.8,95,84,70,30.19,30.09,9,2,9,0.00
2013-4-4,66.9,56.5,47.5,59.0,50.9,41.2,94,82,66,30.19,30.09,9,2,9,0.00
2013-4-5,66.9,58.0,50.0,61.0,53.4,43.3,97,85,66,30.22,30.11,8,2,9,0.00
2013-4-6,72.7,60.4,50.0,65.1,56.4,47.8,95,87,75,30.23,30.13,8,2,9,0.00
2013-4-7,67.6,59.2,50.7,63.5,55.7,46.2,98,88,78,30.24,30.14,7,2,8,0.00
2013-4-8,66.9,57.8,49.8,62.4,55.5,46.4,98,92,78,30.16,30.04,8,2,9,0.07
2013-4-9,65.8,57.4,48.6,62.1,55.1,46.8,98,92,81,30.16,30.04,8,2,8,0.20
2013-4-10,67.5,57.9,48.6,62.6,53.4,44.6,94,85,72,30.15,30.04,8,2,8,0.20
2013-4-11,72.7,58.9,46.2,64.8,55.0,41.9,97,87,74,30.14,30.02,7,1,7,0.02
2013-4-12,67.8,59.3,49.8,61.3,56.2,46.9,98,90,77,30.06,29.97,7,1,8,0.01
2013-4-13,75.9,62.1,52.3,63.1,56.5,48.9,97,83,55,30.04,29.95,10,2,11,0.01
2013-4-14,71.1,60.2,51.4,64.6,57.6,48.9,98,91,69,30.06,29.94,15,2,16,0.00
2013-4-15,68.4,59.2,49.8,64.6,56.6,47.8,98,91,83,30.15,30.01,8,2,8,0.00
2013-4-16,70.7,59.9,50.5,64.2,55.4,43.7,96,85,74,30.19,30.09,7,2,7,0.00
2013-4-17,70.9,59.9,47.7,65.5,55.3,40.8,95,85,68,30.22,30.13,11,2,11,0.00
2013-4-18,69.6,59.4,50.4,62.4,55.8,47.5,98,88,72,30.20,30.12,9,1,9,0.02
2013-4-19,68.5,58.4,46.9,62.8,54.4,39.2,98,87,73,30.19,30.10,8,2,8,0.02
2013-4-20,71.2,60.9,53.1,63.9,56.7,49.1,94,86,74,30.17,30.09,9,2,9,0.02
2013-4-21,66.7,58.7,49.6,62.2,54.9,45.7,96,87,79,30.14,30.06,9,2,9,0.00
2013-4-22,70.7,58.8,49.6,66.2,55.9,46.8,97,90,81,30.15,30.06,12,2,13,0.01
2013-4-23,71.8,61.3,50.4,64.4,56.8,47.8,97,86,68,30.15,30.06,12,2,12,0.01
2013-4-24,70.5,60.6,52.7,66.6,58.3,50.5,98,92,82,30.17,30.08,10,1,10,0.01
2013-4-25,70.7,60.4,51.3,64.6,57.1,49.6,96,89,76,30.16,30.05,9,2,9,0.00
2013-4-26,69.6,58.3,47.7,63.3,53.4,43.3,93,84,75,30.12,30.04,10,2,10,0.00
2013-4-27,71.1,58.7,45.7,61.0,52.1,39.7,90,79,66,30.15,30.03,10,2,10,0.00
2013-4-28,68.7,60.3,51.6,63.1,55.6,46.4,96,85,74,30.12,30.01,9,2,9,0.00
2013-4-29,71.8,64.8,54.3,64.6,58.8,49.6,91,81,72,30.08,29.99,12,2,15,0.00
2013-4-30,66.7,59.5,52.3,63.7,56.8,49.1,97,91,79,30.12,30.03,6,1,6,0.11
2013-5-1,69.6,60.3,50.7,63.0,57.6,49.3,97,91,76,30.15,30.07,7,1,10,0.00
2013-5-2,70.3,60.0,53.1,63.5,57.0,49.1,97,90,77,30.17,30.09,8,2,9,0.00
2013-5-3,67.5,59.5,49.5,61.9,55.5,45.3,94,87,79,30.16,30.06,7,1,8,0.00
2013-5-4,70.2,59.6,50.2,60.4,54.0,44.2,93,82,70,30.10,29.99,11,2,11,0.00
2013-5-5,74.1,61.3,51.4,63.0,56.8,47.8,97,86,60,30.04,29.91,16,2,17,0.06
2013-5-6,70.0,61.9,56.5,64.6,60.7,55.2,99,96,78,30.04,29.93,10,1,10,0.44
2013-5-7,68.5,59.9,51.6,65.3,58.2,50.5,99,94,75,30.07,29.97,8,1,8,0.00
2013-5-8,70.5,62.3,54.9,66.2,59.9,51.8,99,92,80,30.10,30.01,10,1,10,0.00
2013-5-9,72.3,61.5,51.6,64.4,58.5,48.7,98,90,70,30.16,30.04,8,2,8,0.00
2013-5-10,72.1,62.6,54.0,65.8,59.0,50.2,95,88,77,30.19,30.09,10,2,10,0.00
2013-5-11,69.4,62.3,55.0,65.7,60.4,53.1,99,93,83,30.16,30.06,8,1,8,0.02
2013-5-12,68.9,62.4,55.6,66.0,61.3,54.5,99,96,86,30.15,30.05,6,1,6,0.17
2013-5-13,68.2,61.5,55.0,67.3,60.8,54.5,99,98,91,30.13,30.05,7,1,7,0.73
2013-5-14,71.8,63.8,54.9,67.1,61.1,51.1,99,91,83,30.15,30.08,11,1,11,0.73
2013-5-15,71.4,61.4,50.7,65.7,57.7,46.0,97,88,76,30.20,30.11,9,1,11,0.00
2013-5-16,71.1,61.3,51.1,63.7,57.4,48.2,96,88,74,30.18,30.08,8,1,8,0.00
2013-5-17,67.5,59.7,52.2,62.1,56.7,49.5,96,90,79,30.13,30.04,8,1,8,0.14
2013-5-18,69.4,59.5,52.3,63.7,57.2,50.5,99,92,80,30.11,30.02,9,2,9,0.17
2013-5-19,67.1,58.3,51.6,63.1,56.8,50.2,99,95,82,30.08,29.96,9,1,9,0.12
2013-5-20,69.1,58.5,49.6,63.3,56.4,47.7,99,93,81,30.06,29.98,14,2,14,0.15
2013-5-21,71.1,61.6,54.0,65.7,59.1,52.5,99,92,68,30.08,29.99,13,2,15,0.15
2013-5-22,70.5,61.4,52.9,64.6,58.4,50.7,99,90,73,30.12,30.02,7,1,7,0.49
2013-5-23,74.5,63.9,54.0,68.4,60.5,52.0,98,89,78,30.12,30.01,12,2,12,0.49
2013-5-24,74.5,63.7,54.0,67.8,60.5,52.2,98,90,76,30.11,30.02,11,1,13,0.00
2013-5-25,70.0,62.5,52.5,65.5,59.9,50.2,98,91,83,30.11,30.03,8,1,8,0.01
2013-5-26,72.0,62.9,53.6,65.8,59.3,51.6,97,88,77,30.14,30.04,11,2,11,0.01
2013-5-27,69.1,60.2,53.1,63.3,57.0,47.8,98,89,78,30.17,30.07,7,1,7,0.64
2013-5-28,69.3,60.6,53.2,65.3,58.6,52.0,98,93,83,30.19,30.10,8,1,9,0.67
2013-5-29,69.8,61.6,55.2,65.3,59.4,52.5,98,93,83,30.17,30.08,7,1,7,0.08
2013-5-30,70.5,61.4,53.1,65.5,59.3,51.3,98,93,84,30.13,30.02,7,1,7,0.08
2013-5-31,70.3,61.2,50.4,66.2,59.0,48.6,98,93,81,30.13,30.03,6,1,6,0.00
2013-6-1,74.1,63.8,51.3,68.9,60.5,48.4,98,89,76,30.14,30.05,9,1,9,0.00
2013-6-2,75.0,64.8,53.8,68.7,61.1,52.2,97,88,75,30.13,30.06,10,2,10,0.00
2013-6-3,72.3,61.6,50.2,64.9,57.9,46.9,95,88,76,30.14,30.06,8,1,8,0.00
2013-6-4,74.1,62.9,51.4,65.7,58.7,49.3,96,87,70,30.12,30.02,11,1,12,0.00
2013-6-5,73.0,62.0,49.3,66.2,57.1,45.1,97,85,71,30.11,30.01,10,1,10,0.00
2013-6-6,69.1,61.0,50.2,63.3,57.2,47.3,94,88,78,30.12,30.00,7,1,8,0.00
2013-6-7,70.9,61.9,52.9,64.4,58.0,49.3,95,87,77,30.10,30.01,8,1,9,0.00
2013-6-8,69.3,61.6,53.4,63.7,58.0,51.1,97,88,79,30.13,30.03,8,1,10,0.00
2013-6-9,68.2,61.5,54.0,64.4,58.9,50.5,98,91,84,30.14,30.08,6,1,6,0.00
2013-6-10,70.5,61.3,51.3,64.8,58.2,48.2,97,90,80,30.13,30.05,8,1,8,0.00
2013-6-11,72.3,61.1,51.8,65.5,58.3,50.0,97,91,76,30.11,30.04,7,1,7,0.00
2013-6-12,72.3,62.1,48.9,66.2,57.9,44.6,97,86,73,30.14,30.05,9,1,9,0.00
2013-6-13,73.8,63.0,51.4,66.2,58.6,48.9,96,86,75,30.15,30.08,12,1,12,0.00
2013-6-14,70.3,62.5,54.3,64.0,58.3,51.3,93,86,78,30.14,30.03,8,1,8,0.00
2013-6-15,72.1,60.8,49.8,64.0,56.0,43.7,97,85,72,30.09,29.99,10,1,10,0.02
2013-6-16,71.8,62.1,51.3,64.4,57.0,47.5,93,84,74,30.09,30.01,11,1,11,0.02
2013-6-17,70.0,62.5,53.2,64.8,58.5,49.8,96,87,77,30.15,30.04,8,0,8,0.00
2013-6-18,70.0,62.1,51.4,64.6,58.1,47.5,96,87,76,30.12,30.05,0,0,0,0.00
2013-6-19,68.7,62.8,55.6,63.5,58.3,52.3,92,86,75,30.12,30.06,0,0,0,0.00
2013-6-20,68.5,60.3,50.4,64.4,57.5,46.6,99,91,78,30.13,30.05,0,0,0,0.27
2013-6-21,68.7,62.2,55.2,64.4,60.6,53.8,99,95,82,30.12,30.03,0,0,0,0.19
2013-6-22,68.5,62.0,54.7,63.5,60.1,52.3,99,94,84,30.16,30.04,0,0,0,0.01
2013-6-23,72.9,62.4,50.5,66.9,59.0,48.0,97,89,78,30.17,30.09,8,1,9,0.01
2013-6-24,73.2,62.4,54.1,63.9,58.5,48.6,98,87,70,30.15,30.08,10,1,10,0.01
2013-6-25,68.9,60.7,50.4,64.8,58.2,46.6,99,92,83,30.15,30.08,8,1,8,0.84
2013-6-26,71.6,62.6,54.7,66.7,60.8,52.0,99,94,82,30.13,30.03,10,1,10,0.97
2013-6-27,71.2,61.4,50.5,64.8,56.4,44.6,94,84,76,30.09,30.01,9,1,10,0.00
2013-6-28,70.3,59.5,50.4,64.8,57.3,47.8,99,93,80,30.08,30.01,8,1,8,0.55
2013-6-29,69.1,61.0,51.3,64.6,58.3,49.1,98,91,81,30.09,30.00,8,1,8,0.55
2013-6-30,74.5,63.1,53.4,66.7,59.3,50.5,97,88,72,30.09,30.01,8,1,8,0.02
2013-7-1,73.0,61.4,47.8,66.2,56.7,43.0,96,85,76,30.09,30.00,9,1,10,0.02
2013-7-2,70.5,61.0,48.6,65.5,57.9,45.5,98,90,76,30.06,29.97,9,1,9,0.04
2013-7-3,68.7,61.9,54.9,64.4,59.3,53.6,99,92,77,30.06,29.99,6,1,8,0.05
2013-7-4,67.3,61.2,54.0,64.4,59.1,51.6,98,93,86,30.11,30.02,6,1,6,0.07
2013-7-5,68.5,61.3,52.5,66.0,59.1,50.5,98,93,83,30.11,30.01,8,1,8,0.01
2013-7-6,69.4,61.2,53.1,64.8,57.6,50.0,93,88,81,30.10,30.03,7,1,7,0.01
2013-7-7,73.0,62.7,55.6,67.6,59.6,50.2,99,90,73,30.08,29.96,8,1,8,0.04
2013-7-8,73.6,64.1,54.9,66.7,60.7,51.8,99,89,76,30.10,29.97,7,1,8,0.01
2013-7-9,76.3,64.0,52.2,67.1,58.8,49.6,94,84,68,30.17,30.05,10,2,10,0.01
2013-7-10,73.8,63.4,52.3,65.1,59.0,49.8,96,86,71,30.17,30.09,8,1,8,0.00
2013-7-11,73.9,62.9,50.7,65.1,58.1,47.1,95,85,71,30.14,30.04,8,1,10,0.00
2013-7-12,72.7,62.5,51.6,65.5,57.5,45.9,97,84,68,30.10,30.02,9,1,9,0.00
2013-7-13,72.3,61.4,48.9,63.9,56.0,42.4,93,83,71,30.07,29.99,9,1,9,0.00
2013-7-14,71.8,61.8,50.7,62.1,55.2,43.0,97,80,60,30.05,29.98,8,1,8,0.00
2013-7-15,68.4,61.2,53.4,63.7,58.6,50.9,98,91,81,30.08,29.99,10,1,10,0.01
2013-7-16,68.5,61.8,53.8,63.3,58.9,52.3,97,90,82,30.07,29.99,6,1,7,0.01
2013-7-17,69.1,62.5,55.9,63.3,59.0,52.9,97,88,78,30.07,30.00,8,1,8,0.00
2013-7-18,71.6,62.2,54.7,65.5,58.8,50.2,96,89,72,30.12,30.02,8,1,8,0.01
2013-7-19,71.1,62.0,53.8,65.7,58.7,49.8,98,89,78,30.15,30.05,9,1,9,0.01
2013-7-20,69.3,59.9,50.5,64.2,57.0,46.0,98,90,77,30.14,30.05,9,2,9,0.01
2013-7-21,72.7,62.9,52.9,66.0,58.1,47.8,93,85,73,30.11,30.01,9,2,11,0.01
2013-7-22,71.6,64.9,57.0,68.5,63.1,55.0,99,94,88,30.07,29.99,6,0,7,0.03
2013-7-23,70.5,65.0,58.5,68.7,64.0,57.4,99,96,91,30.07,30.00,5,0,6,0.07
2013-7-24,74.5,63.6,56.7,67.5,60.9,53.2,98,91,77,30.06,29.96,8,1,8,0.07
2013-7-25,72.0,62.0,51.4,65.1,58.8,49.6,97,90,78,30.04,29.96,8,0,9,0.00
2013-7-26,69.8,62.7,52.3,65.1,59.1,49.1,97,88,80,30.10,30.00,0,0,0,0.00
2013-7-27,73.8,63.0,50.2,67.1,57.8,46.4,90,83,71,30.10,29.99,11,1,11,0.00